User: anonymous   Login
Location: *
(2.7500°S, 66.6833°W)
Time: 13:32:28
(UTC+00:00)
Language:

PAYLOAD A - Orbit

View from above orbital plane
View from above orbital plane
View from above satellite
View from above satellite

Ground track
Ground track

The orbit data is extracted from the following two-line orbital elements,

1 27946U 03043B   24198.33130819 -.00000038  00000-0 -39448-3 0  9994
2 27946   7.4797 232.4639 7153561 308.3891   6.7414  2.23524588169932
Epoch (UTC): 16 July 2024 07:57:05
Eccentricity: 0.7153561
inclination: 7.4797°
perigee height: 655 km
apogee height: 36006 km
right ascension of ascending node: 232.4639°
argument of perigee: 308.3891°
revolutions per day: 2.23524588
mean anomaly at epoch: 6.7414°
orbit number at epoch: 16993

The dashed part of the orbit path shows where the satellite is in the earth's shadow,  

DLR